FW2617 Weather Reports


time (UTC)temp
F
wind
direction
speed
knots
gust
knots
rain 1hr
in
rain 24hr
in
rain mn
in
humidity
%
barometer
mb
20260831190003 100 173 5.2 12.2 0.00 0.00 0.00 35 1012.4
20260831185425 100 165 4.3 9.6 0.00 0.00 0.00 37 1012.4
20260831184503 100 164 3.5 11.3 0.00 0.00 0.00 38 1012.5
20260831183604 99 164 5.2 10.4 0.00 0.00 0.00 39 1012.7
20260831182703 99 151 4.3 10.4 0.00 0.00 0.00 38 1012.8
20260831181824 99 158 6.1 13.9 0.00 0.00 0.00 38 1012.9
20260831180924 99 152 4.3 13.9 0.00 0.00 0.00 38 1013.0
20260831180003 98 150 3.5 9.6 0.00 0.00 0.00 41 1013.2
20260831175403 98 161 4.3 10.4 0.00 0.00 0.00 40 1013.4
20260831174503 97 168 5.2 10.4 0.00 0.00 0.00 41 1013.5
20260831173603 97 166 4.3 9.6 0.00 0.00 0.00 42 1013.7
20260831172704 96 193 3.5 9.6 0.00 0.00 0.00 42 1013.8
20260831171804 96 179 4.3 10.4 0.00 0.00 0.00 41 1013.9
20260831170903 96 184 4.3 12.2 0.00 0.00 0.00 42 1013.9
20260831170003 95 177 3.5 8.7 0.00 0.00 0.00 43 1014.0
20260831165404 95 168 4.3 10.4 0.00 0.00 0.00 43 1014.1
20260831164503 94 178 3.5 9.6 0.00 0.00 0.00 44 1014.1
20260831163603 93 184 3.5 8.7 0.00 0.00 0.00 45 1014.0
20260831162704 92 193 4.3 10.4 0.00 0.00 0.00 48 1014.1
20260831161803 92 170 3.5 10.4 0.00 0.00 0.00 49 1014.0
20260831160904 91 166 3.5 8.7 0.00 0.00 0.00 51 1014.1
20260831160004 90 181 2.6 7.8 0.00 0.00 0.00 53 1014.0
20260831155403 89 179 2.6 7.0 0.00 0.00 0.00 56 1014.0
20260831154503 88 183 3.5 8.7 0.00 0.00 0.00 58 1014.0
20260831153624 87 195 4.3 8.7 0.00 0.00 0.00 58 1013.9
20260831152703 87 183 4.3 8.7 0.00 0.00 0.00 60 1013.9
20260831151803 86 189 4.3 7.8 0.00 0.00 0.00 62 1014.0
20260831150924 86 172 4.3 10.4 0.00 0.00 0.00 63 1013.9
20260831150003 85 187 3.5 8.7 0.00 0.00 0.00 66 1013.8
20260831145403 84 197 3.5 8.7 0.00 0.00 0.00 67 1013.8
20260831144503 84 189 4.3 10.4 0.00 0.00 0.00 68 1013.8
20260831143603 83 199 5.2 10.4 0.00 0.00 0.00 69 1013.8
20260831142704 83 203 4.3 8.7 0.00 0.00 0.00 71 1013.7
20260831141803 82 203 4.3 12.2 0.00 0.00 0.00 73 1013.7
20260831140903 81 185 3.5 8.7 0.00 0.00 0.00 75 1013.8
20260831140003 80 198 3.5 7.8 0.00 0.00 0.00 77 1013.7
20260831135403 80 196 3.5 7.8 0.00 0.00 0.00 78 1013.7
20260831134503 80 192 3.5 8.7 0.00 0.00 0.00 80 1013.7
20260831133603 79 182 2.6 7.8 0.00 0.00 0.00 81 1013.6
20260831132703 78 167 2.6 6.1 0.00 0.00 0.00 81 1013.5
20260831131824 78 174 2.6 5.2 0.00 0.00 0.00 82 1013.4
20260831130904 77 174 2.6 5.2 0.00 0.00 0.00 82 1013.2
20260831130004 77 178 1.7 5.2 0.00 0.00 0.00 82 1013.2
20260831125403 77 181 1.7 6.1 0.00 0.00 0.00 82 1013.1
20260831124503 76 175 1.7 5.2 0.00 0.00 0.00 83 1013.0
20260831123603 76 176 0.9 3.5 0.00 0.00 0.00 82 1012.9
20260831122703 76 176 0.9 3.5 0.00 0.00 0.00 81 1012.8
20260831121803 76 167 0.9 3.5 0.00 0.00 0.00 81 1012.7
20260831120904 76 172 0.9 3.5 0.00 0.00 0.00 81 1012.5
20260831120024 76 171 0.9 4.3 0.00 0.00 0.00 80 1012.4
20260831115403 76 171 1.7 4.3 0.00 0.00 0.00 80 1012.5
20260831114503 76 169 2.6 5.2 0.00 0.00 0.00 79 1012.3
20260831113603 77 166 1.7 5.2 0.00 0.00 0.00 79 1012.2
20260831112703 77 166 1.7 5.2 0.00 0.00 0.00 78 1012.1
20260831111803 77 164 2.6 7.0 0.00 0.00 0.00 77 1012.0
20260831110903 77 168 1.7 4.3 0.00 0.00 0.00 77 1012.0
20260831110004 78 165 1.7 4.3 0.00 0.00 0.00 76 1012.0
20260831105403 78 168 0.9 4.3 0.00 0.00 0.00 76 1012.0
20260831104504 78 171 0.9 5.2 0.00 0.00 0.00 75 1011.9
20260831103603 78 172 1.7 5.2 0.00 0.00 0.00 75 1012.0
20260831102703 78 175 0.9 2.6 0.00 0.00 0.00 74 1011.9
20260831101803 79 171 0.9 3.5 0.00 0.00 0.00 73 1012.0
20260831100903 79 169 0.9 3.5 0.00 0.00 0.00 73 1012.0
20260831100004 79 166 1.7 5.2 0.00 0.00 0.00 72 1011.9
20260831095403 79 165 1.7 5.2 0.00 0.00 0.00 72 1011.9
20260831094504 80 164 1.7 4.3 0.00 0.00 0.00 71 1011.8
20260831093624 80 168 2.6 5.2 0.00 0.00 0.00 71 1011.8
20260831092703 80 167 1.7 6.1 0.00 0.00 0.00 70 1011.9
20260831091804 80 179 2.6 7.0 0.00 0.00 0.00 70 1011.8
20260831090903 80 181 2.6 6.1 0.00 0.00 0.00 69 1011.6
20260831090004 80 178 2.6 7.0 0.00 0.00 0.00 68 1011.6
20260831085403 81 167 2.6 7.0 0.00 0.00 0.00 68 1011.6
20260831084524 81 170 2.6 7.0 0.00 0.00 0.00 67 1011.6
20260831083603 81 168 3.5 7.0 0.00 0.00 0.00 67 1011.5
20260831082704 82 168 2.6 7.0 0.00 0.00 0.00 66 1011.5
20260831081803 82 172 2.6 7.0 0.00 0.00 0.00 66 1011.5
20260831080903 82 178 2.6 7.0 0.00 0.00 0.00 65 1011.6
20260831080004 82 186 3.5 7.8 0.00 0.00 0.00 65 1011.5
20260831075403 82 186 3.5 7.8 0.00 0.00 0.00 65 1011.5
20260831074525 82 183 2.6 7.0 0.00 0.00 0.00 64 1011.5
20260831073603 82 178 2.6 7.8 0.00 0.00 0.00 63 1011.5
20260831072704 82 181 2.6 7.8 0.00 0.00 0.00 63 1011.5
20260831071824 82 183 2.6 7.0 0.00 0.00 0.00 62 1011.5
20260831070903 82 170 2.6 7.8 0.00 0.00 0.00 61 1011.5
20260831070024 81 170 1.7 5.2 0.00 0.00 0.00 61 1011.6
20260831065403 81 172 2.6 5.2 0.00 0.00 0.00 60 1011.6
20260831064503 81 176 1.7 4.3 0.00 0.00 0.00 59 1011.7
20260831063603 81 177 0.9 3.5 0.00 0.00 0.00 58 1011.7
20260831062703 81 184 0.9 3.5 0.00 0.00 0.00 58 1011.6
20260831061803 81 170 0.9 3.5 0.00 0.00 0.00 57 1011.5
20260831060903 82 162 1.7 4.3 0.00 0.00 0.00 56 1011.6
20260831060024 82 162 1.7 5.2 0.00 0.00 0.00 55 1011.7
20260831055403 82 168 0.9 3.5 0.00 0.00 0.00 55 1011.6
20260831054504 82 169 0.9 3.5 0.00 0.00 0.00 55 1011.4
20260831053603 82 157 0.9 3.5 0.00 0.00 0.00 54 1011.4
20260831052704 83 157 0.9 3.5 0.00 0.00 0.00 54 1011.4
20260831051803 83 167 0.9 3.5 0.00 0.00 0.00 53 1011.4
20260831050904 83 189 0.0 1.7 0.00 0.00 0.00 52 1011.3
20260831050004 84 155 0.9 1.7 0.00 0.00 0.00 52 1011.2
20260831045403 84 158 0.0 1.7 0.00 0.00 0.00 52 1011.2
20260831044504 84 156 0.0 1.7 0.00 0.00 0.00 51 1011.2
20260831043603 84 157 0.9 1.7 0.00 0.00 0.00 50 1011.1
20260831042703 85 154 1.7 2.6 0.00 0.00 0.00 50 1011.1
20260831041803 85 164 0.9 2.6 0.00 0.00 0.00 50 1011.1
20260831040903 85 166 0.9 2.6 0.00 0.00 0.00 49 1011.1
20260831040003 86 166 0.0 0.9 0.00 0.00 0.00 48 1011.0
20260831035403 86 166 0.0 0.9 0.00 0.00 0.00 47 1010.9
20260831034503 87 166 0.0 0.9 0.00 0.00 0.00 47 1010.8
20260831033603 87 166 0.9 2.6 0.00 0.00 0.00 47 1010.7
20260831032724 87 166 0.9 2.6 0.00 0.00 0.00 46 1010.7
20260831031803 88 163 0.0 3.5 0.00 0.00 0.00 45 1010.7
20260831030924 88 155 1.7 3.5 0.00 0.00 0.00 45 1010.6
20260831030003 88 157 0.9 2.6 0.00 0.00 0.00 44 1010.5
20260831025403 88 157 0.9 2.6 0.00 0.00 0.00 44 1010.5
20260831024503 89 157 0.9 3.5 0.00 0.00 0.00 43 1010.3
20260831023603 89 156 1.7 5.2 0.00 0.00 0.00 43 1010.2
20260831022704 89 162 0.9 5.2 0.00 0.00 0.00 43 1010.1
20260831021803 90 151 0.9 3.5 0.00 0.00 0.00 42 1010.0
20260831020903 90 150 0.9 2.6 0.00 0.00 0.00 42 1009.9
20260831020003 91 0 0.0 0.0 0.00 0.00 0.00 41 1009.8
20260831015404 91 0 0.0 0.0 0.00 0.00 0.00 40 1009.7
20260831014503 92 0 0.0 0.0 0.00 0.00 0.00 39 1009.5
20260831013603 92 151 0.9 4.3 0.00 0.00 0.00 39 1009.4
20260831012704 93 158 0.0 4.3 0.00 0.00 0.00 38 1009.4
20260831011803 93 164 0.0 3.5 0.00 0.00 0.00 38 1009.3
20260831010924 94 163 1.7 3.5 0.00 0.00 0.00 37 1009.3
20260831010003 94 161 1.7 5.2 0.00 0.00 0.00 36 1009.2
20260831005403 94 161 2.6 6.1 0.00 0.00 0.00 36 1009.2
20260831004504 95 165 2.6 7.8 0.00 0.00 0.00 35 1009.1
20260831003625 96 165 2.6 7.8 0.00 0.00 0.00 34 1009.1
20260831002704 96 157 3.5 9.6 0.00 0.00 0.00 34 1009.1
20260831001826 97 160 3.5 9.6 0.00 0.00 0.00 34 1009.1
20260831000904 97 154 2.6 7.0 0.00 0.00 0.00 33 1009.1
20260831000004 98 169 4.3 9.6 0.00 0.00 0.00 32 1009.2
20260830235404 98 166 4.3 8.7 0.00 0.00 0.00 32 1009.2
20260830234504 99 155 3.5 9.6 0.00 0.00 0.00 31 1009.2
20260830233604 99 160 4.3 9.6 0.00 0.00 0.00 31 1009.2
20260830232705 99 158 4.3 9.6 0.00 0.00 0.00 30 1009.4
20260830231804 100 155 3.5 8.7 0.00 0.00 0.00 30 1009.2
20260830230925 100 161 5.2 14.8 0.00 0.00 0.00 30 1009.3
20260830230004 100 150 5.2 12.2 0.00 0.00 0.00 30 1009.3
20260830225404 101 143 3.5 10.4 0.00 0.00 0.00 30 1009.3
20260830224504 101 147 4.3 8.7 0.00 0.00 0.00 30 1009.3
20260830223604 101 153 4.3 10.4 0.00 0.00 0.00 28 1009.3
20260830222704 102 145 4.3 10.4 0.00 0.00 0.00 28 1009.4
20260830221804 102 151 5.2 13.0 0.00 0.00 0.00 29 1009.4
20260830220904 102 159 4.3 9.6 0.00 0.00 0.00 30 1009.5
20260830220004 103 150 4.3 9.6 0.00 0.00 0.00 29 1009.5
20260830215425 102 145 3.5 9.6 0.00 0.00 0.00 29 1009.5
20260830214504 102 156 4.3 9.6 0.00 0.00 0.00 29 1009.5
20260830213604 102 160 5.2 11.3 0.00 0.00 0.00 29 1009.6
20260830212704 102 158 3.5 9.6 0.00 0.00 0.00 29 1009.6
20260830211804 102 167 4.3 13.0 0.00 0.00 0.00 29 1009.8
20260830210904 103 153 4.3 10.4 0.00 0.00 0.00 29 1009.8
20260830210004 102 152 4.3 10.4 0.00 0.00 0.00 29 1010.1
20260830205404 102 170 4.3 10.4 0.00 0.00 0.00 29 1010.2
20260830204504 102 163 4.3 10.4 0.00 0.00 0.00 30 1010.3
20260830203625 102 161 4.3 9.6 0.00 0.00 0.00 30 1010.4
20260830202704 102 151 4.3 11.3 0.00 0.00 0.00 29 1010.5
20260830201804 102 150 4.3 12.2 0.00 0.00 0.00 29 1010.6
20260830200904 102 148 3.5 8.7 0.00 0.00 0.00 31 1010.7
20260830200004 101 171 5.2 13.0 0.00 0.00 0.00 31 1011.0
20260830195405 101 163 5.2 14.8 0.00 0.00 0.00 30 1011.0
20260830194504 102 147 5.2 11.3 0.00 0.00 0.00 32 1011.0
20260830193604 101 174 4.3 12.2 0.00 0.00 0.00 31 1011.2
20260830192726 101 165 4.3 12.2 0.00 0.00 0.00 31 1011.3
20260830191804 101 154 4.3 11.3 0.00 0.00 0.00 32 1011.4
20260830190904 100 151 5.2 11.3 0.00 0.00 0.00 32 1011.4